Weather History for Vernon, TX

Change the Weather History Date:

Sunday, January 12, 2014

  Actual Average (KLTS) Record (KLTS)
Temperature  
Mean Temperature 61 °F -  
Max Temperature 82 °F 48 °F 78 °F (2014)
Min Temperature 40 °F 26 °F 12 °F (1997)
Degree Days  
Heating Degree Days 4    
Growing Degree Days 11 (Base 50)    
Moisture  
Dew Point 25 °F    
Average Humidity 30    
Maximum Humidity 48    
Minimum Humidity 12    
Precipitation  
Precipitation 0.00 in - - ()
Sea Level Pressure  
Sea Level Pressure 29.78 in    
Wind  
Wind Speed 14 mph (SSW)    
Max Wind Speed 29 mph    
Max Gust Speed 38 mph    
Visibility 10 miles    
Events      
Averages and records for this station are not official NWS values.
T = Trace of Precipitation, MM = Missing Value Source: NWS Daily Summary

Daily Weather History Graph

Daily Weather History Graph

Search for Another Location

Airport:

Trip Planner

Search our weather history database for the weather conditions in past years. The results will help you decide how hot, cold, wet, or windy it might be!

Date:

Astronomy

Jan. 12, 2014 Rise Set
Actual Time 7:43 AM CST 5:47 PM CST
Civil Twilight 7:16 AM CST 6:15 PM CST
Nautical Twilight 6:45 AM CST 6:46 PM CST
Astronomical Twilight 6:14 AM CST 7:16 PM CST
Moon 3:16 PM CST (1/12) 4:44 AM CST (1/12)
Length of Visible Light 10h 59m
Length of Day
10h 04m
Waxing Gibbous, 90% of the Moon is Illuminated
Jan 12
Waxing Gibbous
Jan 15
Full
Jan 23
Last Quarter
Jan 30
New
Feb 6
First Quarter

Hourly Weather History & Observations

Time (CST) Temp. Windchill Dew Point Humidity Pressure Visibility Wind Dir Wind Speed Gust Speed Precip Events Conditions
12:15 AM 45.3 °F 40.1 °F 18.9 °F 35% 29.95 in 10.0 mi South 10.4 mph - N/A   Clear
12:35 AM 45.0 °F 40.6 °F 19.2 °F 36% 29.95 in 10.0 mi SSW 8.1 mph - N/A   Clear
12:55 AM 43.2 °F 37.0 °F 19.9 °F 40% 29.94 in 10.0 mi SSW 11.5 mph - N/A   Clear
1:15 AM 46.0 °F 41.0 °F 20.3 °F 36% 29.93 in 10.0 mi South 10.4 mph - N/A   Clear
1:35 AM 45.3 °F 40.1 °F 20.8 °F 38% 29.92 in 10.0 mi South 10.4 mph - N/A   Clear
1:55 AM 43.9 °F 38.3 °F 21.2 °F 41% 29.91 in 10.0 mi South 10.4 mph - N/A   Clear
2:15 AM 43.5 °F 38.9 °F 21.6 °F 42% 29.91 in 10.0 mi South 8.1 mph - N/A   Clear
2:35 AM 41.5 °F 37.8 °F 21.6 °F 45% 29.90 in 10.0 mi South 5.8 mph - N/A   Clear
2:55 AM 40.5 °F 35.1 °F 21.9 °F 48% 29.90 in 10.0 mi SSW 8.1 mph - N/A   Clear
3:15 AM 41.0 °F 35.2 °F 22.5 °F 48% 29.90 in 10.0 mi SSW 9.2 mph - N/A   Clear
3:35 AM 41.5 °F 35.4 °F 22.8 °F 47% 29.89 in 10.0 mi SSW 10.4 mph - N/A   Clear
3:55 AM 41.0 °F 33.9 °F 22.8 °F 48% 29.88 in 10.0 mi SSW 12.7 mph - N/A   Clear
4:15 AM 43.9 °F 37.5 °F 23.5 °F 45% 29.88 in 10.0 mi SSW 12.7 mph - N/A   Clear
4:35 AM 45.5 °F 39.6 °F 23.7 °F 42% 29.87 in 10.0 mi SSW 12.7 mph - N/A   Clear
4:55 AM 46.4 °F 40.7 °F 23.5 °F 41% 29.87 in 10.0 mi SSW 12.7 mph - N/A   Clear
5:15 AM 47.5 °F - 23.2 °F 38% 29.86 in 10.0 mi SSW 13.8 mph - N/A   Clear
5:35 AM 47.3 °F - 23.4 °F 39% 29.86 in 10.0 mi SSW 12.7 mph - N/A   Clear
5:55 AM 46.9 °F - 23.5 °F 40% 29.85 in 10.0 mi SSW 11.5 mph - N/A   Clear
6:15 AM 45.9 °F 41.2 °F 23.9 °F 42% 29.85 in 10.0 mi SSW 9.2 mph - N/A   Clear
6:35 AM 44.8 °F 40.4 °F 24.1 °F 44% 29.84 in 10.0 mi SSW 8.1 mph - N/A   Clear
6:55 AM 43.7 °F 38.1 °F 24.6 °F 47% 29.84 in 10.0 mi SSW 10.4 mph - N/A   Clear
7:15 AM 44.4 °F 39.0 °F 25.0 °F 46% 29.84 in 10.0 mi South 10.4 mph - N/A   Clear
7:35 AM 44.4 °F 39.0 °F 25.3 °F 47% 29.84 in 10.0 mi SSW 10.4 mph - N/A   Clear
7:55 AM 45.0 °F 39.3 °F 25.7 °F 47% 29.84 in 10.0 mi South 11.5 mph - N/A   Clear
8:15 AM 46.2 °F 40.1 °F 25.9 °F 45% 29.84 in 10.0 mi South 13.8 mph - N/A   Clear
8:35 AM 47.7 °F - 26.4 °F 44% 29.84 in 10.0 mi SSW 13.8 mph - N/A   Clear
8:55 AM 50.0 °F - 26.6 °F 40% 29.84 in 10.0 mi SSW 13.8 mph - N/A   Clear
9:15 AM 52.0 °F - 26.6 °F 37% 29.83 in 10.0 mi SSW 16.1 mph - N/A   Clear
9:35 AM 53.2 °F - 26.8 °F 36% 29.84 in 10.0 mi SSW 20.7 mph 25.3 mph N/A   Clear
9:55 AM 55.4 °F - 27.1 °F 34% 29.84 in 10.0 mi SSW 19.6 mph 27.6 mph N/A   Clear
10:15 AM 57.9 °F - 27.5 °F 31% 29.83 in 10.0 mi SSW 18.4 mph 26.5 mph N/A   Clear
10:35 AM 60.6 °F - 28.2 °F 29% 29.83 in 10.0 mi SW 21.9 mph 28.8 mph N/A   Clear
10:55 AM 62.4 °F - 28.4 °F 28% 29.82 in 10.0 mi SSW 24.2 mph 33.4 mph N/A   Clear
11:15 AM 64.2 °F - 28.8 °F 26% 29.81 in 10.0 mi SW 26.5 mph - N/A   Clear
11:35 AM 65.8 °F - 29.1 °F 25% 29.80 in 10.0 mi SW 25.3 mph 29.9 mph N/A   Clear
11:55 AM 67.8 °F - 29.7 °F 24% 29.78 in 10.0 mi SW 26.5 mph 29.9 mph N/A   Clear
12:15 PM 69.6 °F - 29.7 °F 23% 29.76 in 10.0 mi SW 25.3 mph 34.5 mph N/A   Clear
12:35 PM 71.8 °F - 30.0 °F 21% 29.74 in 10.0 mi SSW 23.0 mph 28.8 mph N/A   Clear
12:55 PM 74.5 °F - 28.9 °F 19% 29.72 in 10.0 mi SW 25.3 mph 33.4 mph N/A   Clear
1:15 PM 76.3 °F - 27.9 °F 17% 29.70 in 10.0 mi SW 25.3 mph 31.1 mph N/A   Clear
1:35 PM 77.4 °F - 27.0 °F 16% 29.68 in 10.0 mi SSW 26.5 mph 35.7 mph N/A   Clear
1:55 PM - - - N/A% 29.67 in 10.0 mi SW 28.8 mph 38.0 mph N/A   Unknown
1:56 PM 78.8 °F - 26.6 °F 15% 29.67 in 10.0 mi SW 27.6 mph 38.0 mph N/A   Unknown
2:15 PM 79.7 °F - 26.1 °F 14% 29.66 in 10.0 mi SSW 26.5 mph 36.8 mph N/A   Clear
2:35 PM 80.8 °F - 26.2 °F 14% 29.65 in 10.0 mi SW 24.2 mph 33.4 mph N/A   Clear
2:55 PM 81.3 °F - 25.7 °F 13% 29.65 in 10.0 mi SW 27.6 mph 35.7 mph N/A   Clear
3:15 PM 81.9 °F - 25.3 °F 13% 29.64 in 10.0 mi SW 26.5 mph 33.4 mph N/A   Clear
3:35 PM 82.2 °F - 25.2 °F 12% 29.63 in 10.0 mi SW 21.9 mph 29.9 mph N/A   Clear
3:55 PM 82.4 °F - 25.0 °F 12% 29.63 in 10.0 mi SW 27.6 mph - N/A   Clear
4:15 PM 82.2 °F - 23.5 °F 12% 29.63 in 10.0 mi SW 20.7 mph 26.5 mph N/A   Clear
4:35 PM 80.8 °F - 23.4 °F 12% 29.63 in 10.0 mi SSW 17.3 mph 21.9 mph N/A   Clear
4:55 PM 80.1 °F - 24.8 °F 13% 29.63 in 10.0 mi SSW 17.3 mph - N/A   Clear
5:15 PM 77.5 °F - 23.9 °F 14% 29.62 in 10.0 mi SSW 15.0 mph - N/A   Clear
5:35 PM 75.7 °F - 23.9 °F 15% 29.63 in 10.0 mi SSW 13.8 mph - N/A   Clear
5:55 PM - - - N/A% 29.63 in 10.0 mi SSW 16.1 mph - N/A   Unknown
6:15 PM 72.5 °F - 26.4 °F 18% 29.64 in 10.0 mi SSW 18.4 mph - N/A   Clear
6:35 PM 71.6 °F - 27.3 °F 19% 29.66 in 10.0 mi WSW 10.4 mph - N/A   Clear
6:55 PM 69.6 °F - 27.5 °F 21% 29.67 in 10.0 mi SW 13.8 mph - N/A   Clear
7:15 PM 69.3 °F - 27.1 °F 21% 29.67 in 10.0 mi SW 11.5 mph - N/A   Clear
7:35 PM 67.5 °F - 27.7 °F 23% 29.67 in 10.0 mi SSW 13.8 mph - N/A   Clear
7:55 PM 66.0 °F - 28.2 °F 24% 29.68 in 10.0 mi SSW 11.5 mph - N/A   Clear
8:15 PM 64.6 °F - 28.0 °F 25% 29.69 in 10.0 mi SSW 9.2 mph - N/A   Clear
8:35 PM 63.9 °F - 27.9 °F 26% 29.69 in 10.0 mi SSW 13.8 mph 18.4 mph N/A   Clear
8:55 PM 64.2 °F - 28.2 °F 26% 29.70 in 10.0 mi SW 9.2 mph - N/A   Clear
9:15 PM 61.2 °F - 28.2 °F 29% 29.71 in 10.0 mi SW 8.1 mph - N/A   Clear
9:35 PM 60.1 °F - 27.0 °F 28% 29.71 in 10.0 mi West 9.2 mph - N/A   Clear
9:55 PM 55.9 °F - 25.3 °F 31% 29.74 in 10.0 mi WNW 12.7 mph - N/A   Clear
10:15 PM 58.8 °F - 24.8 °F 27% 29.77 in 10.0 mi North 20.7 mph 27.6 mph N/A   Clear
10:35 PM 58.8 °F - 27.0 °F 30% 29.78 in 10.0 mi North 19.6 mph 27.6 mph N/A   Clear
10:55 PM 57.9 °F - 27.3 °F 31% 29.80 in 10.0 mi North 19.6 mph 26.5 mph N/A   Clear
11:15 PM 57.0 °F - 27.5 °F 32% 29.82 in 10.0 mi North 16.1 mph 21.9 mph N/A   Clear
11:35 PM 56.3 °F - 27.5 °F 33% 29.84 in 10.0 mi North 17.3 mph 23.0 mph N/A   Clear
11:55 PM 55.4 °F - 27.5 °F 34% 29.86 in 10.0 mi North 13.8 mph - N/A   Clear